Theta_e
338 338 338 338 337 335 334 331 331 329 324 331 335 332 335 334 331 333 336 335 334 334 333 333 333 332 333 333 333 332 331 332 332 331 331 330 326 322 323 323 322 321 320 319 318 314 312 310 308 307 306 306 307 309 312 315 317 318 320 322 322 322 320 320 319 319 318 317 317 317 317 317 316 316 315 316 317 317 318 319 318 317 318 318 317
337 338 338 338 337 337 336 332 333 332 329 333 334 333 334 333 333 334 336 336 334 333 333 333 331 332 333 331 331 330 329 331 333 331 331 331 328 324 323 324 323 322 320 319 318 317 313 308 306 307 308 310 314 317 320 321 322 323 324 324 324 324 322 319 319 321 321 321 320 320 320 319 317 316 316 316 316 316 317 319 319 319 319 319 318
337 337 338 338 338 337 337 334 333 332 330 332 333 333 334 333 332 334 336 336 335 333 332 332 331 332 333 331 331 332 332 332 332 331 331 331 330 326 323 323 322 321 320 318 316 315 311 307 308 310 314 317 320 322 323 323 324 324 325 326 326 326 324 320 319 320 320 321 321 321 321 321 319 316 316 316 315 315 316 318 320 320 320 321 320
336 337 337 337 337 336 336 335 335 333 329 330 333 333 334 334 331 330 333 335 335 333 332 332 332 332 333 332 332 333 333 333 332 331 332 331 330 329 326 324 323 319 318 316 312 311 309 309 312 316 320 322 323 324 324 324 325 326 326 327 326 326 323 320 320 320 320 320 320 319 319 320 321 318 315 315 314 314 316 319 320 321 320 321 321
335 335 336 336 337 337 337 336 335 334 331 331 333 332 333 333 331 328 329 332 335 334 333 333 332 333 334 332 331 332 333 333 333 332 331 331 331 331 330 329 327 320 316 314 312 310 311 313 317 321 323 324 325 325 326 326 327 327 327 326 326 325 322 320 321 321 321 321 320 319 319 318 319 319 316 314 314 313 316 320 321 321 321 321 321
334 334 334 335 336 338 337 336 336 335 333 331 332 333 333 333 333 331 331 332 335 335 333 333 333 334 335 332 332 333 332 333 333 332 331 331 331 332 331 331 330 326 319 315 314 313 314 317 320 323 324 325 326 327 328 329 329 329 328 326 324 322 320 319 321 322 322 322 321 320 319 318 318 320 317 313 313 314 317 321 321 321 320 320 321
334 334 333 333 335 336 336 337 337 336 334 331 330 332 332 332 334 335 334 334 335 335 334 334 334 335 335 332 333 332 331 332 332 331 331 331 331 331 331 331 331 330 325 319 316 316 317 319 322 324 324 325 327 328 329 329 329 329 327 325 322 318 317 319 320 321 322 322 322 321 320 319 318 320 318 312 312 315 318 321 320 320 321 321 321
333 333 332 331 332 334 336 337 338 337 336 333 331 332 331 330 332 335 336 335 335 335 334 334 335 335 335 334 333 330 330 332 331 332 331 331 332 332 330 331 331 331 328 325 321 319 319 321 322 323 324 325 327 328 328 328 329 328 327 324 320 314 310 316 321 321 322 323 322 321 320 319 319 320 318 312 313 317 320 320 320 320 321 321 321
332 333 331 330 329 330 334 336 336 336 336 335 333 333 332 330 330 332 335 335 334 335 335 335 335 334 334 333 330 327 329 332 332 333 332 330 333 332 330 330 330 330 329 329 327 324 322 322 323 324 324 325 327 328 328 327 328 328 327 324 321 315 308 311 319 321 321 322 321 321 321 320 320 320 316 313 316 319 319 319 319 319 321 321 321
332 333 331 330 328 329 332 334 335 334 334 335 335 334 334 332 330 329 331 334 334 334 335 334 334 334 333 331 329 327 329 331 333 333 332 331 333 333 331 330 330 329 330 329 328 327 326 324 323 324 325 325 326 327 327 327 327 327 327 325 323 317 308 306 312 316 318 320 320 319 321 321 320 319 314 314 318 319 319 318 318 319 319 319 320
331 333 332 329 328 328 330 331 332 333 334 334 334 334 334 333 332 330 329 332 334 333 335 334 333 333 333 331 329 329 330 332 333 333 333 332 332 333 332 331 330 329 329 329 328 328 328 327 325 326 326 326 326 327 327 327 327 327 326 326 324 315 306 305 306 308 311 316 319 318 320 321 320 318 314 315 320 321 321 317 316 316 315 317 320
330 332 332 330 328 327 328 328 328 331 332 333 333 334 333 331 332 332 330 332 334 334 335 334 333 333 332 331 329 328 331 333 333 332 333 332 331 331 331 330 331 329 328 328 328 328 328 328 327 328 328 326 325 325 326 327 326 328 326 326 326 316 305 306 306 305 305 310 316 318 320 322 320 318 316 317 321 323 322 317 314 312 311 315 319
330 330 330 329 328 326 326 326 328 328 329 331 333 334 333 331 330 331 331 332 334 334 335 334 333 333 331 330 330 329 331 332 332 332 332 332 331 330 331 330 330 330 328 327 328 328 327 327 327 327 328 326 325 324 325 327 326 327 326 326 327 317 306 306 306 306 305 306 314 319 321 322 320 320 319 320 322 323 320 316 312 309 308 312 316
331 330 329 329 328 326 326 327 328 329 329 331 333 333 333 332 330 329 330 332 334 333 334 333 332 333 332 331 331 330 330 331 332 331 331 332 331 330 331 331 330 330 328 326 328 329 328 328 327 327 327 326 326 326 326 326 326 327 326 325 322 311 305 306 305 305 305 304 313 321 322 321 320 320 321 321 322 321 316 311 309 306 305 306 308
332 330 329 328 328 327 327 327 328 329 330 330 331 333 332 331 331 329 328 331 333 332 332 331 331 333 332 332 332 331 331 331 330 330 330 331 332 331 330 330 330 329 328 327 329 330 329 329 329 328 327 326 327 327 327 327 326 324 322 317 311 306 305 306 304 305 305 304 313 322 322 320 320 320 321 321 323 321 314 307 305 303 302 303 302
333 332 330 329 328 327 327 327 328 329 329 328 328 332 333 331 330 329 328 331 333 333 332 330 331 333 332 332 332 331 331 332 330 330 331 331 331 331 330 329 328 328 329 328 329 330 329 329 329 328 327 327 327 327 327 327 322 317 314 309 305 305 306 306 308 308 305 305 315 322 321 320 320 320 322 322 321 319 312 305 303 302 302 301 301
334 333 331 330 329 328 326 326 327 328 328 327 326 330 333 333 331 329 330 333 334 334 334 331 330 332 333 332 332 331 332 332 332 331 331 331 331 330 330 330 329 328 329 328 327 330 330 329 329 328 328 327 326 327 327 324 317 312 310 308 305 305 307 311 313 313 309 310 317 322 321 320 319 319 320 317 314 311 306 302 302 302 301 301 301
333 333 332 331 331 329 327 326 325 326 327 326 325 328 331 332 331 330 330 331 332 332 333 331 329 330 332 332 331 331 331 332 332 332 332 331 332 331 330 330 330 329 329 328 328 329 329 329 328 327 327 327 327 326 327 325 321 316 311 307 306 305 310 316 316 315 315 316 319 321 321 319 317 315 312 307 305 303 302 301 301 301 301 301 301
332 332 331 331 331 331 329 327 325 325 326 326 324 326 329 330 330 330 329 329 328 329 329 328 328 329 330 331 330 330 330 331 331 332 332 331 332 332 330 330 330 330 329 328 329 329 329 329 329 327 327 327 327 326 327 327 325 322 314 306 305 306 312 319 319 317 318 318 319 319 319 318 314 309 305 303 302 301 301 301 301 301 301 301 301
329 329 329 329 329 330 329 328 326 326 327 327 325 324 327 330 329 329 329 329 328 328 328 327 327 328 329 329 329 329 330 331 331 331 331 331 332 332 331 330 330 330 330 329 329 330 329 329 329 329 328 328 327 327 328 327 322 320 314 307 305 307 313 320 321 320 320 319 319 317 315 313 309 305 302 302 302 301 301 301 301 301 301 301 301
328 327 327 327 328 329 329 328 327 326 327 327 326 324 326 330 330 330 330 329 329 329 328 327 326 327 328 328 329 329 329 331 332 331 330 330 331 332 331 331 330 329 329 329 330 330 329 328 328 329 329 328 328 327 327 325 319 315 311 307 305 305 311 319 322 321 320 319 317 313 308 307 305 302 301 301 301 301 302 302 301 301 301 301 301
328 326 325 326 328 329 329 328 327 327 328 327 327 326 327 329 330 330 329 329 329 329 329 327 327 327 327 328 329 328 329 332 332 332 331 331 331 331 332 331 331 330 329 329 329 330 330 328 327 328 328 329 329 327 325 323 320 316 310 306 306 304 308 316 321 320 318 316 314 308 303 303 303 302 301 301 302 302 302 301 301 301 301 302 302
328 326 325 326 327 328 329 329 330 329 330 330 329 328 328 329 330 330 329 328 328 329 328 327 327 327 327 327 328 327 329 332 332 332 333 332 331 330 331 331 330 331 330 329 329 330 330 328 327 328 328 329 329 327 324 322 321 317 309 305 306 305 306 311 317 319 316 311 309 305 302 302 302 301 302 302 302 302 302 302 302 302 302 302 302
329 328 327 326 327 326 326 328 330 331 331 331 330 330 329 328 330 331 330 329 328 328 327 326 326 327 328 327 327 328 329 332 332 332 333 332 331 330 331 331 330 330 331 329 329 330 331 329 328 328 328 329 328 326 324 321 320 316 308 305 305 305 305 307 310 314 311 306 304 303 302 302 302 302 302 302 303 302 302 302 302 302 302 302 302
330 329 329 329 329 328 326 325 326 328 330 331 330 331 330 328 329 330 329 328 327 327 327 328 328 329 329 327 327 328 329 331 332 331 331 331 331 331 331 330 329 330 331 330 329 330 330 329 329 329 329 328 327 325 323 321 319 315 308 305 305 305 305 305 305 307 305 302 302 302 302 302 302 303 303 302 303 302 302 302 302 302 303 303 303
334 332 331 332 332 331 329 326 325 325 327 329 330 331 330 329 329 329 328 327 328 328 328 329 329 329 328 326 327 328 329 330 331 331 332 332 331 331 331 330 330 330 330 330 329 329 330 330 329 329 329 328 327 325 324 321 320 316 308 304 306 305 306 305 302 303 302 302 303 302 302 302 303 303 303 303 303 303 303 302 303 303 303 303 303
335 334 332 332 333 333 330 328 327 325 326 328 330 331 329 328 329 330 329 328 328 329 328 329 329 329 328 326 326 327 328 329 330 331 332 332 332 331 330 331 330 330 330 329 329 329 329 329 329 329 329 328 327 325 324 322 321 318 309 304 306 305 306 306 303 302 302 302 302 302 303 302 303 303 303 303 303 303 303 303 303 303 303 305 307
332 331 330 331 333 333 332 330 328 325 325 326 328 330 330 329 327 328 330 329 328 328 329 329 328 328 328 328 327 326 327 330 331 331 331 331 332 330 330 331 330 329 330 330 329 329 329 329 329 329 329 329 327 326 325 324 323 320 311 305 306 305 306 306 304 302 302 303 303 302 303 303 303 303 303 303 303 303 303 303 303 304 305 309 311
330 329 329 329 330 332 332 331 329 326 325 325 326 328 329 329 328 327 330 330 328 328 330 329 328 328 328 328 327 325 327 330 330 330 329 330 331 330 329 331 330 329 329 330 329 329 329 329 329 330 329 329 328 326 325 324 324 321 311 305 305 305 306 306 305 303 302 302 303 302 303 303 303 303 303 303 303 303 303 303 304 306 309 312 313
330 330 330 329 329 331 332 331 330 329 327 325 326 327 328 329 328 328 329 330 328 328 330 329 329 329 329 328 327 326 327 329 329 329 329 329 330 330 329 330 330 329 329 329 329 328 329 329 329 329 329 329 328 327 326 324 324 322 312 308 308 305 305 307 305 304 302 302 303 303 303 303 303 303 303 303 303 303 303 304 306 309 312 313 313
330 329 329 329 328 330 331 330 330 330 329 327 327 328 328 328 329 329 330 330 330 329 329 329 329 330 329 328 328 327 328 329 329 329 330 329 329 329 330 330 330 329 329 329 328 328 329 329 329 329 329 329 328 327 326 324 325 322 312 312 315 308 304 306 306 304 303 302 303 303 303 303 303 303 303 303 303 303 304 306 308 311 313 313 313
330 329 328 329 329 329 330 330 329 330 330 328 327 328 328 328 329 330 330 330 330 330 330 330 329 329 329 328 329 329 328 329 330 329 328 329 328 328 331 330 329 329 329 329 328 328 328 329 329 328 329 329 327 327 326 323 324 321 313 313 317 310 305 306 306 304 302 302 303 303 303 303 303 304 304 304 304 305 306 307 310 312 313 313 313
330 329 328 328 329 329 328 328 328 329 331 330 328 329 330 329 329 330 330 330 330 330 331 331 329 329 329 328 328 328 327 328 330 328 326 327 327 328 330 330 329 329 329 329 329 328 328 329 329 328 328 328 326 326 325 322 323 320 315 315 315 309 306 306 305 305 303 302 303 303 303 303 303 305 305 306 307 307 308 309 311 313 313 313 313
330 329 329 328 328 328 327 327 327 327 330 332 330 330 331 330 330 330 330 331 330 330 331 330 328 328 329 327 326 328 328 329 331 329 325 326 327 328 330 330 329 329 330 330 330 328 327 329 329 327 328 327 326 326 324 322 323 319 315 317 313 307 306 306 305 305 303 303 303 303 303 304 304 306 306 307 308 309 309 310 311 312 313 313 313
330 329 329 329 328 328 327 327 326 326 329 331 331 330 330 330 331 330 330 331 330 330 329 328 328 328 328 327 326 328 329 329 330 328 326 326 327 328 329 329 329 329 330 330 330 328 327 329 329 327 328 327 326 326 324 322 323 318 312 316 315 308 307 307 308 307 304 302 303 303 303 304 304 305 306 308 309 309 310 311 311 312 313 313 313
329 330 330 330 329 329 328 328 327 328 329 331 332 331 330 330 330 330 331 331 331 330 329 328 329 328 327 326 326 328 328 328 328 327 326 326 326 326 327 329 329 329 329 330 329 328 328 328 328 327 328 328 326 326 325 323 323 318 311 314 316 312 309 309 311 312 308 304 302 303 303 303 304 305 306 307 308 309 310 310 311 311 312 312 312
328 328 329 330 330 330 329 328 328 329 330 331 332 331 331 330 330 330 331 331 331 331 330 329 329 328 328 327 327 328 329 330 330 327 326 327 326 326 326 327 329 329 330 329 329 329 328 327 327 327 327 327 326 326 325 323 323 319 313 312 314 314 312 311 311 313 312 308 303 302 303 303 304 305 305 306 307 308 308 309 309 309 309 309 309
327 327 327 329 330 330 330 329 329 330 330 330 331 331 330 331 331 330 331 331 332 331 330 329 329 329 329 328 329 328 329 331 331 328 327 327 326 327 327 328 329 329 329 330 329 328 327 327 327 327 326 326 326 326 325 324 323 320 316 313 314 313 312 312 311 311 311 309 305 303 303 304 304 305 306 306 307 307 308 308 308 308 308 308 308
326 326 326 327 328 329 330 330 330 330 330 329 330 330 330 331 331 331 331 331 331 330 330 330 329 329 328 329 329 328 328 329 329 327 327 326 326 327 328 328 329 328 329 330 329 328 328 327 327 326 326 326 326 326 325 324 323 320 317 315 315 314 313 312 312 311 310 308 306 304 303 304 305 306 307 307 308 308 309 309 309 309 308 309 309
325 326 326 326 327 328 328 329 329 330 330 329 329 329 330 330 331 330 330 330 330 330 329 329 329 329 329 329 328 328 330 330 328 327 326 326 326 327 328 328 328 328 328 329 328 328 328 327 326 326 325 325 326 326 324 322 321 319 317 316 316 316 314 313 313 312 311 309 307 305 305 305 306 307 307 308 308 309 309 309 309 309 309 310 310
324 325 325 325 326 326 327 328 329 329 329 329 329 329 330 330 330 329 329 330 331 330 328 328 329 329 329 328 328 329 331 330 328 327 326 325 326 327 326 326 327 328 328 328 328 328 328 327 327 326 325 324 324 325 323 320 319 318 316 316 317 316 316 315 314 313 312 311 309 307 307 306 307 308 308 308 309 309 309 309 309 310 311 311 311
322 323 324 324 324 325 326 327 328 328 328 328 328 329 329 329 329 330 330 330 330 329 328 328 329 329 328 327 329 330 328 327 327 327 326 326 326 326 324 324 325 327 328 328 328 327 328 328 328 327 325 324 323 323 321 319 318 317 317 317 317 317 316 316 316 314 313 313 312 311 310 309 308 308 308 309 310 310 310 311 311 311 312 312 312
319 320 321 322 323 324 325 326 327 327 328 328 328 328 329 328 329 329 329 330 329 329 329 328 328 329 328 328 330 329 326 326 327 326 325 326 325 325 324 322 323 324 325 326 327 327 327 327 327 326 325 324 323 322 320 319 318 318 318 318 318 318 318 317 318 316 315 313 313 313 312 311 310 310 311 311 312 313 313 313 313 313 313 313 313
316 317 318 319 320 321 322 324 324 326 327 327 327 327 327 328 328 329 329 329 329 328 327 327 328 329 329 329 330 328 326 327 327 325 325 325 326 326 324 322 322 324 324 325 326 327 327 326 326 326 326 325 323 321 321 320 319 318 319 319 318 318 318 318 317 317 316 314 313 313 313 312 312 313 314 314 314 314 314 315 315 315 315 315 316
315 316 316 317 318 319 321 322 323 324 324 325 326 327 327 327 328 328 328 329 328 327 327 327 328 330 329 329 329 327 326 327 325 325 325 325 325 325 323 322 323 324 325 325 327 327 327 326 326 326 326 325 324 322 322 321 320 320 321 321 320 318 318 317 316 316 317 315 313 313 313 314 315 315 315 315 315 315 316 316 316 316 317 317 316
315 315 316 316 317 318 319 320 321 322 323 324 325 326 326 327 327 327 328 329 328 327 328 328 329 329 329 328 326 325 326 326 325 325 325 324 324 324 323 323 324 325 325 326 327 327 326 326 326 325 325 325 323 323 322 322 322 322 321 320 319 318 317 317 316 317 318 315 314 315 316 315 317 317 317 316 317 317 318 317 318 318 317 316 316
314 314 315 315 316 316 317 317 318 319 320 322 324 325 326 326 326 327 327 328 328 327 328 328 328 328 328 328 326 326 325 325 324 324 324 324 324 324 324 325 325 325 325 325 325 326 326 326 325 324 324 324 323 323 323 321 321 322 320 319 320 318 316 315 317 318 319 316 315 316 317 317 318 319 319 319 318 318 318 318 318 317 316 315 314
313 313 313 314 314 315 315 316 316 317 318 319 321 324 325 326 326 326 326 328 328 327 328 329 328 328 328 328 327 327 326 324 324 324 323 323 321 321 323 325 325 325 325 325 324 325 326 326 324 323 323 323 323 324 323 321 321 321 320 319 318 317 315 314 314 316 317 317 315 315 318 320 319 319 319 319 318 318 317 317 316 314 313 313 311
312 312 312 312 313 314 314 314 315 315 316 317 318 320 323 324 326 325 325 326 328 328 328 329 328 327 327 327 327 327 325 324 323 322 320 319 319 321 323 323 323 324 325 325 325 325 326 326 325 324 324 324 324 324 323 322 321 320 320 318 314 313 314 314 313 315 317 318 316 314 316 319 319 317 317 317 317 317 315 313 313 312 311 310 306
311 311 311 311 312 313 313 313 313 314 314 315 316 317 319 322 324 325 325 325 327 328 328 328 327 326 326 326 326 325 323 321 319 317 317 319 321 323 323 321 321 324 325 325 325 325 326 326 325 324 324 324 324 324 324 323 321 320 319 316 312 313 315 315 315 317 318 318 317 315 315 317 317 316 317 316 315 314 312 312 312 311 309 307 304
309 310 310 310 311 311 312 313 313 314 314 314 315 316 317 318 320 322 323 323 324 325 326 326 326 327 326 326 325 322 320 318 317 318 320 322 323 323 322 322 323 325 325 325 325 325 325 324 324 323 323 323 323 323 323 321 320 319 317 315 314 315 315 315 315 318 319 319 318 316 315 316 315 315 316 314 311 311 312 311 310 309 308 307 306
Wind_Speed
18 18 17 17 15 16 18 17 17 17 18 19 18 16 16 17 16 15 13 12 12 11 10 11 10 9 8 7 7 6 6 6 4 4 3 1 3 3 2 1 2 2 2 2 2 1 0 2 4 5 5 7 9 10 10 10 10 10 10 11 11 11 11 11 10 9 9 10 10 11 11 12 12 12 12 12 12 14 14 14 15 15 15 15 16
16 16 16 18 17 16 17 17 17 18 19 19 18 17 17 18 17 16 14 13 13 12 11 10 10 9 8 8 6 5 4 5 6 5 5 6 7 6 2 1 3 3 3 3 2 1 2 4 6 7 8 10 10 10 10 10 9 9 9 9 10 10 11 11 10 9 8 8 9 9 10 11 11 11 11 11 11 13 13 14 14 14 14 14 16
14 14 15 17 18 16 16 17 16 18 19 19 18 17 16 17 19 18 16 14 13 13 11 10 10 10 9 8 6 4 4 5 6 6 5 6 6 4 1 1 3 3 3 2 1 2 4 7 8 9 10 10 10 10 9 8 8 8 8 8 9 10 11 11 11 10 10 9 9 9 9 9 10 10 10 10 11 12 12 13 14 14 13 13 15
14 13 13 14 15 15 15 15 16 17 18 18 18 17 16 18 20 19 18 16 13 13 12 11 11 10 9 9 8 6 5 5 5 7 7 5 3 1 1 0 1 3 3 2 2 4 6 9 9 10 10 10 10 9 9 8 8 8 8 8 8 9 10 10 10 11 11 11 11 11 10 9 8 9 9 9 10 11 11 12 13 13 12 13 13
15 14 14 10 9 11 13 14 16 16 17 18 18 18 17 18 20 19 19 17 14 13 13 11 11 10 10 10 8 7 6 6 6 7 7 5 4 3 4 2 1 2 2 1 3 6 7 9 9 10 10 10 9 8 8 7 6 7 7 7 7 8 9 9 9 9 10 11 12 12 11 10 8 8 8 9 10 10 11 12 12 12 12 13 13
14 14 13 10 9 11 13 13 15 16 17 19 19 18 18 17 19 19 18 18 15 15 13 12 12 11 11 10 8 8 8 7 8 7 7 6 6 6 4 2 1 1 2 2 3 6 7 8 9 10 9 8 6 5 5 4 4 4 5 5 5 6 7 7 8 8 8 9 10 11 11 10 8 7 8 9 9 10 11 12 12 12 13 14 16
14 13 13 13 12 11 11 12 14 16 17 19 19 19 18 18 19 18 17 17 16 15 14 13 12 12 11 10 9 9 8 8 8 7 7 7 6 6 5 4 4 3 2 3 4 5 6 7 8 9 7 5 5 3 3 2 2 2 3 4 4 5 5 5 6 6 6 7 9 9 10 10 8 7 8 9 9 10 11 12 13 14 15 17 18
14 14 14 15 14 11 11 13 15 17 17 17 19 19 18 19 19 18 17 16 16 15 14 13 13 13 12 10 10 9 8 9 8 7 8 6 5 6 6 6 6 5 4 3 3 5 5 5 6 6 5 4 4 3 3 3 2 2 4 4 4 5 5 4 5 5 5 5 7 8 8 9 9 8 9 9 10 11 11 12 14 15 16 17 18
14 16 16 15 15 14 13 13 16 19 19 17 18 17 17 19 20 19 17 16 16 15 14 13 13 14 12 11 10 9 8 9 8 8 8 7 7 7 6 7 7 6 7 6 4 4 4 4 5 5 4 3 3 3 3 2 1 2 4 5 4 3 4 4 5 4 4 4 5 6 7 9 9 10 10 10 11 12 12 12 14 16 16 16 16
14 16 17 15 16 17 16 12 13 19 19 17 17 16 16 18 19 20 19 16 15 15 14 14 14 13 12 11 10 10 10 9 8 8 7 7 8 8 8 8 7 6 8 7 5 5 5 4 5 5 4 3 3 3 3 3 2 3 5 5 4 2 3 4 5 5 4 4 3 5 6 8 9 10 10 11 12 13 12 12 14 14 14 14 15
13 16 17 16 15 17 17 14 14 17 17 17 17 16 17 19 18 19 21 18 14 14 14 13 14 13 12 12 11 11 10 9 9 9 9 10 10 10 10 8 7 8 8 7 6 5 5 5 5 5 4 4 4 4 3 4 3 4 6 6 4 2 3 3 4 5 5 5 4 4 5 7 9 10 10 11 12 12 11 11 12 12 12 13 13
14 16 17 16 16 16 16 15 16 18 17 18 17 16 19 19 19 18 19 18 15 14 14 14 14 13 13 13 13 13 11 11 11 10 10 12 13 12 10 8 8 9 9 9 8 6 6 6 5 6 5 4 5 5 5 4 4 5 6 7 5 1 2 2 3 4 5 6 6 4 5 7 8 9 9 9 11 10 9 9 11 11 11 11 12
14 15 16 16 17 16 15 15 17 18 18 18 17 18 19 18 19 19 19 18 16 15 15 15 14 14 14 13 12 12 13 13 12 11 12 13 12 12 10 9 9 10 9 9 7 6 6 6 6 6 5 4 5 5 5 5 5 6 7 7 5 1 1 1 2 3 5 7 7 7 6 6 7 8 8 9 11 10 8 9 10 10 10 10 11
14 14 15 15 16 16 16 16 17 17 18 18 16 17 18 17 18 20 21 19 16 17 17 17 16 15 14 12 11 12 13 13 13 13 15 14 13 13 12 11 11 11 10 9 8 7 7 6 6 6 6 5 4 4 5 5 6 8 8 7 5 2 1 1 2 3 5 7 8 8 7 6 7 7 8 10 12 9 8 9 9 9 9 9 10
13 15 16 16 15 15 15 16 17 16 17 18 17 17 17 18 18 18 21 19 16 17 18 19 16 13 13 12 11 12 12 14 15 14 15 16 14 14 14 13 14 13 11 9 8 7 7 7 6 7 7 6 5 5 5 7 8 9 8 6 5 3 2 3 3 4 7 9 10 9 8 7 6 8 10 11 10 8 7 8 8 8 9 9 9
12 14 16 17 16 14 14 15 16 15 16 19 19 18 16 17 18 18 18 16 14 15 17 18 16 13 14 13 11 13 12 13 16 15 16 16 16 16 15 14 14 13 11 10 9 9 8 7 8 8 8 7 7 6 7 9 9 7 6 5 4 4 4 4 5 6 8 10 11 10 9 7 7 9 10 10 8 7 7 7 7 9 8 8 8
11 12 14 16 16 15 15 16 16 16 17 19 20 20 17 16 18 19 16 14 13 13 14 17 18 16 15 14 11 11 12 12 14 15 16 16 16 16 15 13 14 13 13 12 11 11 9 9 9 8 8 8 7 7 8 10 8 6 5 4 4 4 4 6 6 7 9 11 12 11 8 7 8 10 9 8 7 6 7 7 8 8 8 8 8
9 10 12 15 16 16 16 17 17 17 18 18 20 23 22 19 18 16 16 16 15 15 15 17 19 17 15 16 14 11 11 13 14 13 15 17 16 15 15 14 13 13 13 12 12 12 11 10 10 9 9 8 8 9 10 10 8 6 5 4 5 6 6 8 8 7 9 11 11 10 8 7 9 9 7 7 7 7 7 7 8 8 8 9 9
8 9 11 14 16 16 16 16 16 16 17 18 20 23 24 22 18 15 15 16 17 18 19 18 18 17 17 19 17 13 11 14 15 13 13 16 16 15 16 14 13 12 12 13 13 13 12 11 10 10 10 10 11 11 10 10 8 6 5 5 6 7 9 10 10 8 9 10 9 8 7 8 9 8 7 7 7 7 7 7 8 8 9 9 10
8 9 11 13 15 16 16 16 15 15 17 19 20 21 23 23 20 18 17 17 19 20 19 19 19 18 18 21 20 17 14 14 15 15 15 16 16 15 15 13 13 13 12 14 14 13 13 12 11 10 10 11 12 12 11 9 10 8 5 6 7 9 11 11 12 11 11 11 10 8 8 8 9 8 8 8 8 7 8 8 8 9 9 10 11
9 10 11 13 14 14 15 16 16 16 17 19 20 20 23 24 23 21 19 19 21 21 21 21 21 19 19 21 21 21 20 18 16 15 15 13 14 15 15 14 15 15 14 15 15 13 13 13 12 11 11 12 11 12 11 9 10 10 7 7 8 10 12 12 13 14 13 12 11 9 9 9 9 9 8 8 8 8 8 8 9 9 10 11 11
10 11 12 13 14 14 15 16 16 17 17 19 20 20 22 23 24 22 20 20 22 22 23 23 22 21 20 19 20 22 24 22 19 17 14 12 12 15 17 17 16 16 16 16 15 14 14 14 12 11 13 13 12 12 11 8 9 9 8 8 10 11 13 13 14 14 13 11 10 8 9 9 9 9 9 9 9 9 8 9 9 9 10 10 11
11 11 11 12 13 14 15 15 16 17 18 20 21 21 21 21 22 22 21 22 23 23 24 23 23 23 22 21 20 22 24 23 20 17 14 13 13 13 16 17 16 16 16 17 17 16 15 15 14 13 13 13 13 13 12 11 11 10 8 10 11 12 14 14 14 13 12 10 9 8 8 9 9 9 9 9 9 9 9 9 9 10 10 10 10
12 11 11 12 14 15 15 16 16 18 19 20 21 21 21 20 21 21 22 23 22 22 23 23 24 24 24 24 23 23 25 22 20 17 15 14 13 12 14 14 14 15 15 16 18 17 16 16 15 15 15 14 14 14 13 14 15 11 9 11 12 13 14 14 14 14 12 11 10 10 9 9 9 9 9 9 9 9 10 10 10 10 10 10 10
11 12 11 12 14 15 16 17 18 19 19 19 21 21 21 21 21 21 21 22 22 22 23 24 25 25 26 26 25 26 25 21 20 18 15 14 13 12 12 13 13 14 15 16 18 18 17 17 16 15 15 14 15 15 15 15 15 11 10 12 12 13 14 14 14 13 12 12 11 11 11 10 10 10 10 10 10 10 10 11 11 11 10 10 10
12 13 12 12 16 16 16 17 17 18 19 19 20 21 22 21 21 21 21 21 21 23 24 25 25 25 26 26 25 26 26 23 21 17 14 14 14 13 11 11 12 13 15 16 17 18 18 17 16 15 16 15 16 17 15 14 14 12 12 12 13 14 14 14 14 13 12 12 12 12 12 11 11 11 11 10 10 10 11 11 11 11 11 11 10
14 14 14 14 18 18 17 17 17 18 19 20 19 19 21 22 21 21 21 21 21 22 24 24 24 24 25 26 26 26 26 24 20 17 17 14 13 16 14 12 13 14 14 16 17 18 18 17 16 17 17 16 17 16 15 14 13 12 12 13 14 15 14 14 14 14 13 12 13 13 13 12 12 12 11 11 11 11 12 12 12 12 12 11 11
16 17 17 17 18 18 17 18 18 19 20 21 20 20 21 21 21 21 21 22 22 22 23 24 24 24 25 26 26 26 25 24 19 18 20 17 15 18 18 14 15 16 15 16 17 18 18 17 17 17 17 17 18 17 16 16 14 12 14 13 14 15 15 15 15 14 14 13 13 14 13 13 13 13 12 12 12 12 12 12 12 12 12 11 11
19 19 19 19 19 19 19 19 18 20 22 21 22 23 22 22 22 21 22 23 23 22 23 24 24 24 25 26 27 27 26 24 22 21 23 20 17 19 20 17 16 17 17 17 18 19 19 19 18 18 18 18 19 18 16 16 15 14 15 15 15 16 15 15 15 15 14 14 14 14 14 14 14 14 13 13 13 13 13 13 13 13 12 11 10
20 21 20 20 20 20 20 19 17 18 20 21 21 23 24 25 24 22 22 24 24 24 24 25 24 24 25 26 27 28 27 25 23 23 23 22 20 20 21 20 18 17 17 16 16 18 19 19 18 18 19 19 19 18 17 16 15 13 16 16 15 16 16 15 15 15 15 15 15 15 15 15 15 15 14 14 14 14 13 13 13 13 12 11 10
21 21 20 20 21 21 20 19 18 17 18 19 21 22 24 26 25 24 24 24 25 25 25 26 25 24 25 26 27 27 26 26 25 25 24 23 24 22 19 19 20 18 18 16 15 17 18 19 20 18 18 19 19 18 16 17 16 14 15 16 15 15 16 16 16 16 17 16 17 17 16 16 16 16 15 14 14 14 14 14 14 13 12 11 10
20 19 19 19 21 22 20 20 20 18 17 18 19 21 23 25 25 26 26 25 25 26 26 26 25 24 24 25 26 26 25 25 26 27 25 24 26 25 21 21 22 20 20 18 16 16 17 19 21 20 19 20 20 18 17 17 17 15 15 17 16 16 17 17 16 17 18 18 18 18 18 18 17 16 15 15 14 14 14 14 14 13 12 11 10
19 18 19 19 19 19 20 20 22 20 18 18 19 19 21 23 25 26 26 26 26 27 26 26 26 25 25 26 26 27 25 24 26 27 27 26 27 27 23 22 23 21 21 20 17 17 18 17 18 20 20 21 20 18 19 19 18 16 16 17 19 18 17 17 17 17 19 19 19 19 19 19 18 16 15 14 14 14 14 14 14 13 12 11 10
18 17 18 18 18 19 21 22 24 23 22 20 20 20 22 23 24 25 26 26 26 27 27 28 27 25 25 27 27 26 24 24 25 26 27 28 28 29 25 23 24 22 20 19 18 18 19 17 17 19 19 20 20 20 20 20 19 18 19 18 18 18 17 17 17 17 19 19 20 20 19 18 17 16 14 14 14 13 13 14 14 13 12 11 10
18 18 18 19 19 21 23 24 24 24 25 23 21 20 21 23 25 25 25 26 27 29 30 28 27 25 26 28 27 26 25 25 26 27 28 29 29 29 27 25 25 22 20 20 18 18 22 21 19 19 19 20 21 20 20 20 18 17 20 19 16 16 17 17 15 16 18 19 20 19 19 18 17 16 15 14 14 13 13 14 14 13 13 12 11
18 18 19 20 21 22 24 25 25 25 26 24 20 19 20 22 24 25 25 26 27 29 30 28 27 27 27 27 27 27 26 25 27 28 29 30 29 29 28 27 25 23 22 22 19 20 23 22 21 21 20 22 22 19 20 20 17 15 18 19 16 15 16 16 14 14 16 18 19 19 18 19 18 17 16 15 14 13 13 13 13 13 12 12 12
18 18 18 20 22 23 24 26 27 27 29 26 21 20 20 21 23 24 25 26 26 27 29 29 29 29 28 26 26 26 25 25 27 29 30 29 28 28 28 27 25 24 24 22 21 21 22 22 21 20 20 22 21 20 20 21 18 16 17 19 17 16 16 15 15 15 16 17 19 20 19 19 18 18 17 15 14 14 13 13 13 13 13 13 12
17 18 19 19 20 22 23 26 27 28 29 26 22 21 23 23 23 24 25 26 26 27 28 28 28 30 30 27 25 25 26 27 28 28 29 29 28 27 27 27 27 27 26 22 21 22 22 23 21 19 19 19 20 20 21 21 20 18 18 18 17 17 17 16 15 18 20 19 19 20 20 20 19 18 17 16 14 14 14 13 13 13 13 13 13
16 17 18 19 20 21 22 24 25 27 27 25 22 23 25 26 25 24 25 26 26 26 26 27 28 30 29 28 27 26 27 28 28 27 28 29 28 27 27 26 26 27 27 25 23 20 20 23 23 20 19 18 19 22 21 20 20 18 19 19 18 17 17 17 17 17 18 19 19 19 19 19 19 18 16 16 15 15 15 14 14 14 13 13 13
16 17 18 19 20 21 22 24 25 26 25 23 22 24 27 27 27 26 27 26 26 26 27 28 29 29 29 29 28 26 26 27 26 27 28 28 28 28 28 25 21 21 24 27 26 22 19 22 24 22 19 18 21 23 21 20 20 19 19 19 18 17 17 18 17 16 15 16 17 19 20 20 19 18 17 17 17 16 15 15 15 14 14 14 14
19 20 20 20 19 19 20 22 24 26 25 22 22 25 27 28 28 28 27 26 26 28 29 30 29 29 29 29 27 25 25 26 26 27 26 25 26 27 27 25 21 18 19 22 25 25 21 21 23 23 19 18 21 22 21 21 22 20 19 18 17 17 16 16 16 16 15 14 14 16 18 19 18 18 18 18 17 16 15 15 15 14 14 15 17
21 22 23 23 23 22 21 19 21 23 25 23 23 25 27 28 28 28 26 24 26 29 31 31 30 29 29 29 27 25 25 25 25 25 23 21 23 24 24 24 23 21 19 19 20 22 22 21 22 24 22 20 21 21 20 21 22 19 18 18 17 16 16 15 15 15 16 15 14 14 15 16 16 16 17 16 15 14 14 15 15 16 17 18 18
19 20 22 24 25 26 25 23 21 20 20 21 24 27 27 27 28 28 26 24 25 27 29 31 29 28 28 28 26 25 25 25 25 25 22 21 22 22 22 22 23 22 21 19 18 19 22 20 20 22 23 21 21 21 19 21 21 20 19 19 18 17 17 16 15 15 17 17 15 14 14 15 14 13 13 14 15 16 16 16 17 17 17 18 17
16 15 17 19 21 23 25 27 26 23 21 22 25 26 26 27 28 28 28 28 27 27 29 30 30 30 30 27 24 23 25 26 26 25 22 22 23 22 21 20 21 22 22 20 19 19 21 19 18 21 24 22 22 21 20 20 21 21 19 18 18 17 17 17 15 15 17 17 16 16 14 14 15 13 11 12 16 18 18 17 17 17 17 17 17
19 17 15 15 15 17 19 23 26 27 26 25 25 25 25 26 27 28 30 29 28 28 28 30 32 32 29 26 24 24 24 25 25 24 22 22 23 22 21 20 22 22 20 20 20 20 20 20 19 21 23 23 24 23 20 20 21 22 20 19 20 18 17 16 15 15 16 15 15 16 14 14 15 14 12 13 16 16 16 17 18 18 18 18 18
23 22 20 19 17 17 16 16 19 23 26 27 27 25 25 26 26 27 29 29 28 28 29 30 32 30 26 25 26 26 25 25 25 24 22 22 21 21 21 20 22 22 20 21 22 21 20 20 20 19 18 21 24 24 22 24 25 25 25 24 23 21 20 18 14 13 15 15 14 14 13 14 15 14 14 18 18 15 16 18 18 19 19 19 19
26 25 24 23 22 21 20 20 19 18 20 25 27 27 26 26 25 26 27 29 29 27 29 31 30 25 23 24 25 26 25 25 24 23 22 21 19 19 19 18 20 21 21 22 23 23 22 21 20 19 16 18 23 23 24 27 28 26 25 24 22 22 25 23 16 11 13 16 17 17 14 14 16 16 16 17 15 14 16 15 15 16 16 17 18
25 26 26 27 27 25 24 24 23 22 18 18 22 26 27 27 26 24 24 27 27 25 27 29 26 22 22 22 21 23 24 24 23 22 20 19 18 17 17 17 18 20 20 20 20 21 22 21 18 18 17 19 24 24 23 25 25 24 23 22 21 23 26 25 20 14 13 16 19 18 14 12 15 17 16 12 10 9 10 9 11 15 15 15 17
22 23 25 27 28 28 27 25 24 25 24 22 18 19 23 25 28 26 23 25 27 25 25 27 24 21 21 21 20 20 21 21 20 18 17 16 16 16 17 18 18 18 18 18 18 19 20 17 14 15 16 17 21 24 23 23 21 20 20 20 21 23 23 22 20 17 17 20 20 18 15 12 11 12 11 8 8 6 5 6 10 14 15 15 15
20 21 22 23 25 27 27 25 24 23 23 24 23 20 17 17 21 24 23 25 27 24 22 22 23 23 23 24 22 19 19 18 15 14 14 14 14 16 18 18 17 16 16 16 17 17 18 16 13 15 17 17 19 21 22 23 20 18 19 21 23 24 22 21 20 19 20 21 18 16 15 11 9 10 10 7 7 6 5 5 7 10 13 14 13
20 20 20 21 23 24 25 24 23 22 22 21 21 21 18 13 12 15 20 24 24 21 22 21 22 25 25 25 23 18 15 15 14 14 14 13 14 16 17 15 13 13 14 15 15 16 17 16 15 16 18 17 18 18 19 21 21 19 21 25 25 23 23 21 19 18 20 20 17 14 12 9 7 10 13 9 5 4 6 6 5 4 6 8 9
Wind_Direction
210 202 195 194 194 186 186 188 186 193 188 180 190 194 186 182 183 183 176 180 183 178 175 171 171 165 162 170 170 166 160 152 149 157 138 144 278 316 359 6 25 3 351 342 336 349 73 74 83 92 96 99 97 95 92 89 85 81 80 80 78 75 71 68 68 70 72 75 77 77 76 76 76 76 75 74 73 75 77 81 87 87 83 83 83
218 208 197 194 193 189 188 189 185 188 188 184 189 195 193 185 183 183 179 185 186 182 181 178 175 166 172 182 177 175 172 154 154 163 149 183 250 295 300 333 360 347 345 334 331 89 115 100 104 107 106 105 100 96 92 87 81 76 76 75 73 72 67 62 62 65 68 71 74 75 75 74 74 75 75 74 74 77 80 83 87 89 89 86 85
228 216 205 200 195 190 192 192 189 192 193 187 189 195 195 188 186 185 181 184 187 186 184 182 179 174 183 185 173 177 180 172 173 169 161 198 252 289 262 359 358 344 340 330 30 108 114 113 119 116 111 107 100 95 88 81 75 69 67 65 64 64 62 61 61 65 69 69 71 71 70 72 75 77 78 79 80 81 84 85 89 91 91 88 87
235 224 218 212 200 193 194 195 193 198 199 190 190 196 196 191 189 190 185 183 185 187 186 184 183 179 187 189 177 180 184 184 193 182 176 199 233 241 258 82 58 13 355 335 102 122 124 126 128 119 113 106 99 93 86 78 71 64 59 56 53 55 57 60 65 69 73 73 72 70 67 69 76 81 82 84 87 87 89 90 90 91 89 87 90
237 232 229 224 214 207 198 198 201 202 199 192 191 194 200 194 189 194 194 187 185 188 188 186 187 182 186 193 183 182 187 185 196 192 182 190 179 201 268 297 54 33 48 51 120 134 134 136 132 123 120 112 103 93 84 75 66 59 55 52 44 46 50 59 68 71 74 74 72 70 67 66 75 88 88 89 92 92 94 95 91 88 85 86 91
240 239 238 233 235 226 208 205 208 206 201 195 193 194 201 196 186 193 196 191 189 190 190 188 189 184 187 193 187 189 190 189 200 195 184 191 180 186 238 262 275 333 90 101 134 142 141 143 138 134 133 119 110 98 87 78 69 64 60 55 39 38 46 58 68 70 71 71 69 66 62 63 72 92 95 93 96 95 96 95 89 85 85 88 91
244 245 240 239 247 243 224 218 215 212 209 203 197 196 203 200 188 189 194 193 191 192 192 191 189 185 192 194 189 198 196 197 206 201 197 197 187 190 197 189 203 206 146 123 141 146 147 151 149 151 148 129 132 136 128 140 131 113 91 74 52 50 59 69 71 70 72 69 66 63 59 57 68 95 100 97 99 98 97 93 88 88 90 93 93
242 243 241 243 250 254 241 231 224 217 214 209 201 198 204 203 195 189 191 195 194 195 194 193 190 188 195 192 194 206 200 203 205 204 209 185 182 207 189 176 187 186 175 167 157 155 154 163 168 170 166 149 159 172 161 172 170 140 120 101 83 67 72 98 99 83 79 73 66 65 61 57 70 97 100 97 99 97 97 94 93 95 97 97 95
238 237 242 248 248 254 256 243 232 224 215 210 203 198 202 204 202 195 190 196 198 198 196 194 194 194 199 198 204 212 205 208 198 197 210 182 184 210 192 187 187 177 188 196 186 179 173 178 185 184 188 182 182 190 188 203 195 143 139 118 100 71 66 108 129 124 100 82 68 66 70 66 76 96 99 98 98 94 94 93 97 101 101 98 96
245 240 242 248 247 251 261 260 250 237 224 215 206 198 202 202 204 204 198 199 201 202 201 198 199 199 204 208 212 214 210 212 201 198 209 192 191 205 202 199 188 184 202 206 204 203 195 195 203 200 201 200 200 199 194 212 210 159 152 133 122 88 58 95 127 139 130 111 88 77 83 81 86 99 101 103 102 95 91 91 98 102 101 99 98
250 246 243 246 250 251 257 265 271 258 238 231 219 202 207 203 200 209 206 202 202 205 205 203 205 204 205 210 214 216 211 208 208 203 206 204 198 202 206 199 193 203 211 209 205 205 202 204 211 207 208 201 196 205 202 210 203 172 162 149 146 110 58 86 121 136 142 143 130 101 98 93 98 106 104 106 103 95 93 97 103 102 97 99 102
256 249 248 250 251 251 254 259 266 263 250 243 231 211 213 209 201 206 207 205 204 205 207 205 205 206 208 213 219 218 208 209 212 203 208 215 207 206 207 196 204 216 214 203 194 197 200 200 200 206 219 201 187 202 201 198 192 176 170 161 162 135 55 101 128 135 144 148 146 137 122 101 99 107 106 107 103 97 101 107 108 103 98 101 104
266 254 251 252 250 249 251 251 252 256 254 248 237 223 218 215 212 211 210 207 203 203 206 205 203 206 211 217 222 221 215 218 219 208 210 218 215 210 204 199 212 222 218 197 185 200 199 190 194 204 214 190 182 198 189 189 192 181 171 166 176 191 52 118 143 150 151 151 153 151 138 113 103 111 113 112 108 107 110 109 111 108 105 105 104
267 257 251 252 251 248 246 248 249 251 252 248 243 237 226 218 218 218 218 213 206 207 207 208 210 207 206 208 216 223 224 225 224 217 212 213 216 210 199 198 207 219 219 192 181 204 196 185 199 204 202 191 184 187 182 187 182 170 167 173 190 201 161 178 171 168 161 156 156 153 144 125 114 121 122 117 114 116 114 109 112 112 110 112 110
266 260 254 251 251 248 244 247 251 250 252 250 245 242 232 222 219 219 223 219 213 217 216 213 213 209 205 204 209 217 224 229 227 223 216 212 214 212 208 210 211 218 220 192 184 206 196 185 199 201 193 190 183 174 175 176 165 163 171 184 195 187 177 169 155 163 165 159 157 155 147 131 126 131 127 121 120 122 116 112 116 117 117 120 120
272 262 251 246 246 247 244 245 248 249 252 253 249 243 232 222 218 217 221 219 216 224 226 220 213 208 206 202 205 212 222 231 225 223 220 213 213 214 213 219 221 219 214 196 186 198 200 191 195 197 191 188 186 177 171 168 164 168 179 188 187 182 174 151 130 141 158 160 158 157 150 136 135 138 131 127 128 129 123 121 123 124 125 127 125
276 265 252 246 246 246 244 242 246 248 248 251 252 247 237 226 220 213 209 209 210 217 227 227 220 217 211 203 203 210 223 228 216 218 222 214 216 219 213 218 226 222 212 203 192 193 199 193 188 191 194 192 185 180 173 168 170 178 178 180 175 170 163 145 126 130 149 156 156 158 156 146 145 144 138 136 137 135 132 131 131 130 129 126 120
272 262 253 248 248 248 245 243 247 248 244 245 250 250 247 241 233 222 213 211 211 215 228 235 230 229 226 219 214 213 227 227 208 206 217 213 215 220 212 213 222 224 219 206 198 199 198 194 192 192 195 192 180 177 175 173 182 188 175 175 171 159 152 142 130 132 145 151 156 163 163 156 156 154 147 144 141 140 139 138 136 130 125 120 114
270 261 254 248 249 248 245 246 249 248 244 241 246 252 251 245 239 237 229 223 224 227 236 243 240 238 232 226 227 227 234 230 209 198 207 208 210 215 214 214 215 220 219 203 200 203 197 193 194 197 197 187 180 178 173 176 187 189 173 172 173 159 153 149 140 136 140 147 159 171 175 168 165 160 152 147 144 144 144 140 133 126 121 117 113
270 266 259 251 248 244 242 246 248 247 245 242 246 251 250 246 244 243 239 235 234 234 237 242 245 246 235 228 233 236 233 232 219 210 209 202 199 205 209 213 211 212 211 201 199 201 199 194 188 197 196 183 184 176 168 186 195 194 193 182 174 162 158 159 152 146 146 155 170 185 184 175 167 161 154 149 149 148 143 135 128 123 119 116 114
265 267 267 259 251 244 237 238 243 244 243 243 245 247 245 244 245 245 244 243 239 236 237 239 244 251 243 233 236 238 237 239 233 225 219 204 195 197 199 203 208 212 211 202 196 195 200 198 185 193 195 184 187 171 165 204 210 196 199 188 176 168 165 167 163 160 163 171 184 188 178 172 168 162 157 153 151 146 138 132 127 122 118 116 115
265 268 271 265 252 244 237 234 236 237 238 240 241 243 241 241 245 247 247 245 240 237 237 238 242 248 249 243 241 240 239 241 237 227 224 216 205 199 198 200 204 208 209 202 196 195 200 200 187 192 198 185 180 167 165 205 215 198 196 187 179 173 170 173 174 175 176 178 183 177 165 167 167 162 159 155 150 144 137 132 127 124 123 121 120
264 266 266 262 251 244 239 234 234 233 233 235 237 240 241 240 244 244 242 241 240 238 237 236 238 242 245 243 240 239 238 239 235 225 222 222 213 201 198 205 208 205 204 200 196 196 199 200 189 189 199 187 174 170 172 190 201 199 196 187 181 176 173 177 182 183 183 180 175 167 162 166 166 162 159 156 151 147 142 137 134 131 130 130 128
261 262 261 257 250 246 240 233 230 232 231 232 234 238 240 241 242 239 238 238 236 234 233 234 237 239 240 238 236 237 238 239 235 225 220 220 214 203 199 206 208 200 199 198 194 195 199 200 192 187 196 192 176 174 181 195 203 203 199 191 185 179 176 179 183 186 187 182 173 166 166 168 166 163 162 160 158 155 149 143 142 142 141 141 137
259 264 267 260 252 248 245 240 234 231 230 230 232 234 236 241 241 240 239 237 233 230 230 232 237 239 239 237 234 234 236 236 232 224 220 219 213 209 203 202 203 197 199 198 193 193 196 199 195 187 194 192 178 179 190 202 207 204 201 196 188 184 181 181 184 185 185 180 174 170 169 170 170 168 167 168 167 163 156 152 151 151 151 150 147
256 263 267 264 258 250 244 244 242 236 232 229 229 231 234 238 240 241 240 236 232 230 231 234 237 238 237 236 235 235 235 233 228 223 218 216 212 210 205 199 199 198 196 192 191 193 193 195 194 189 193 189 182 188 195 203 207 202 200 197 192 189 185 183 185 185 183 179 177 174 172 173 174 172 172 173 173 169 162 160 160 160 159 157 153
254 257 257 257 259 255 246 242 240 239 236 231 230 231 234 235 236 239 238 234 232 232 233 234 237 237 235 236 237 236 235 233 230 225 217 213 213 210 203 195 194 195 194 190 193 197 191 189 191 190 191 186 185 189 192 203 212 207 202 198 196 195 189 188 187 185 186 183 180 179 176 177 178 176 176 176 177 174 169 167 168 167 164 161 158
262 260 258 259 262 260 253 246 240 240 240 237 233 233 235 235 234 235 234 233 232 233 232 232 234 233 231 235 236 235 234 231 227 227 220 213 214 210 202 201 199 194 193 194 196 198 192 187 189 192 192 187 186 186 190 205 215 210 203 199 199 199 195 193 190 187 188 185 184 183 180 181 181 179 180 179 179 178 175 174 174 172 168 165 164
265 263 263 264 265 262 258 253 246 241 241 241 238 237 237 236 235 235 234 234 233 232 232 231 231 230 230 233 234 233 234 228 221 224 222 214 215 214 205 206 209 200 196 198 199 198 193 189 189 190 191 189 187 185 188 204 213 207 202 202 204 202 200 199 195 191 190 187 188 188 185 186 186 184 184 183 183 183 181 181 179 176 173 170 170
267 262 261 259 260 263 262 258 252 245 241 239 239 240 241 240 240 238 235 235 234 233 235 235 232 230 229 231 233 232 232 229 223 224 223 216 215 218 211 208 213 211 207 205 202 200 195 192 192 190 189 189 190 186 188 203 215 210 199 199 208 206 201 203 201 196 193 190 191 191 191 192 190 188 188 187 187 187 186 186 182 180 179 177 178
275 264 261 257 254 258 262 259 253 247 242 237 235 237 240 242 241 237 233 232 233 234 235 235 231 228 229 228 229 228 226 227 226 222 223 220 214 215 215 214 213 213 216 214 207 204 198 194 195 193 187 189 192 188 189 204 218 216 197 192 207 211 204 205 205 200 197 194 193 193 193 195 194 192 192 191 191 191 191 189 186 186 185 185 186
281 269 265 261 254 255 262 263 256 248 241 239 236 234 238 241 240 238 235 233 233 233 232 232 229 227 229 227 226 225 224 226 226 223 221 221 218 213 214 218 214 212 218 218 212 209 204 200 201 195 188 192 193 185 188 205 218 214 195 192 207 212 206 207 208 204 201 197 196 196 194 196 197 195 194 194 195 195 195 194 193 193 194 194 196
284 275 268 263 255 254 260 262 259 255 246 241 238 234 235 240 239 238 236 233 233 232 229 232 232 230 231 229 228 230 228 224 225 223 219 220 222 217 214 216 215 217 221 218 215 211 201 197 201 198 194 194 191 184 188 204 217 208 190 196 213 214 208 210 211 208 205 201 199 198 197 198 197 197 197 197 199 200 199 200 200 201 203 204 207
284 278 270 263 256 254 255 254 255 257 252 243 238 234 234 237 238 237 235 233 234 232 230 232 232 229 230 230 229 230 224 219 222 224 220 219 221 219 215 214 216 218 218 216 218 212 199 192 194 197 197 192 187 186 188 201 218 210 190 198 218 215 209 213 214 212 210 205 203 202 200 201 199 199 200 200 203 205 205 207 207 209 213 215 221
286 282 277 270 261 255 254 253 253 256 255 248 244 241 236 236 238 238 237 235 234 233 233 233 230 228 230 231 230 229 224 223 225 223 219 218 219 219 215 214 218 220 217 218 219 207 196 192 188 189 192 191 189 189 190 199 216 209 190 195 212 211 207 210 212 217 216 210 208 206 204 205 204 203 205 205 207 209 210 213 214 218 221 225 232
288 284 279 275 270 264 258 257 256 254 253 250 246 245 241 239 240 241 240 238 236 235 234 235 232 229 230 231 232 231 227 226 226 220 217 218 219 219 217 215 220 224 220 217 213 203 196 195 193 191 193 195 193 192 191 195 207 205 191 193 201 200 201 202 204 218 225 217 212 210 208 208 207 209 211 211 212 214 216 219 221 225 230 235 242
287 283 279 274 273 270 264 260 257 252 251 247 244 249 250 246 243 241 240 239 237 233 232 236 236 232 231 232 234 234 225 220 221 219 217 218 218 219 219 218 220 223 219 213 209 208 202 195 195 197 199 198 195 194 192 190 196 200 193 193 195 194 195 196 199 216 228 223 215 212 211 212 212 213 215 216 218 220 222 225 229 233 237 243 249
289 283 280 276 274 271 265 262 258 253 252 247 242 248 251 248 245 243 241 238 237 236 234 235 235 233 232 232 233 233 223 218 222 221 218 218 218 216 215 216 220 220 217 213 210 209 202 193 192 196 199 200 197 195 193 190 194 196 191 191 193 193 194 193 197 215 226 225 220 216 215 215 215 216 219 221 222 225 228 230 234 238 242 248 254
288 283 282 281 278 274 269 266 264 259 259 255 245 244 247 247 247 248 246 241 239 239 236 233 234 235 235 233 234 232 222 219 223 222 216 217 218 214 211 217 225 221 215 212 208 205 199 193 194 194 194 197 197 195 191 190 194 196 192 189 189 191 194 193 196 214 229 231 224 220 220 220 221 222 223 225 226 228 231 234 237 241 246 251 256
283 279 282 282 280 279 273 270 269 266 267 267 257 249 248 249 248 249 250 247 241 238 236 236 237 236 234 233 233 227 217 217 221 219 215 216 217 214 213 220 231 228 219 212 207 206 201 194 193 192 192 197 198 193 190 192 196 197 193 190 188 189 192 195 197 203 221 233 228 221 222 223 224 226 227 229 231 232 234 238 241 245 249 252 256
280 277 278 279 282 286 281 277 277 273 271 272 266 258 252 251 251 250 251 249 244 241 241 240 237 233 231 231 228 221 216 217 218 217 217 217 217 215 216 223 231 235 230 217 208 207 204 196 193 190 190 197 198 192 191 194 195 193 191 190 191 191 191 197 202 201 207 222 227 226 226 226 226 230 233 234 235 236 238 241 241 242 245 250 256
277 275 276 276 276 279 279 281 284 282 278 275 270 265 259 252 249 248 250 252 248 245 245 242 235 229 228 228 223 218 220 221 217 216 220 219 217 216 217 225 231 235 237 231 220 213 206 200 196 191 189 194 196 194 193 194 193 190 189 190 190 191 192 194 201 204 204 207 211 217 224 229 232 235 237 240 241 238 236 236 238 242 247 253 260
289 281 277 275 274 274 273 274 276 280 282 275 266 265 265 260 252 245 244 246 244 244 245 241 233 227 225 225 220 214 217 219 215 214 219 220 219 218 218 222 227 230 233 235 230 220 213 207 199 196 198 197 194 195 195 192 190 189 190 192 192 192 194 196 201 205 203 204 205 207 214 224 232 233 233 241 242 235 233 238 242 246 250 255 262
328 311 297 289 284 281 277 274 272 271 272 270 266 265 266 264 259 250 244 240 238 241 243 236 229 226 223 221 218 214 213 214 213 214 217 216 215 215 217 219 221 225 228 228 227 222 216 212 206 205 209 204 193 193 196 193 191 191 192 194 195 197 202 206 208 206 205 204 202 204 209 215 218 217 218 231 234 228 233 245 252 254 258 264 269
1 354 342 328 315 303 290 281 276 273 271 269 267 267 266 265 262 255 249 245 241 238 233 225 224 225 221 214 214 216 214 211 211 214 214 211 211 212 216 219 218 221 224 225 228 226 217 213 214 215 219 214 199 192 195 197 194 191 190 189 191 194 200 207 212 215 216 211 202 204 210 209 208 206 210 226 232 228 233 245 251 257 263 267 270
13 10 4 358 350 339 324 306 290 280 275 271 268 266 264 264 263 257 251 247 241 230 219 218 223 223 215 213 216 218 214 210 210 213 211 210 212 212 214 217 217 220 223 223 228 232 226 217 216 219 223 219 208 199 199 203 199 194 194 196 196 192 191 197 207 212 210 206 198 199 208 210 206 204 213 227 231 226 228 237 245 252 261 267 272
14 13 9 5 360 352 344 336 325 307 286 271 265 264 263 259 257 257 252 242 235 226 215 219 226 220 211 213 217 216 213 209 208 210 209 207 206 204 209 214 216 220 224 224 225 230 230 224 219 220 219 209 205 203 203 205 207 206 207 210 211 204 196 194 198 204 202 200 197 197 208 218 209 203 215 231 234 228 227 235 250 261 269 278 283
10 14 13 10 6 358 351 346 344 341 326 292 267 258 257 256 255 256 251 238 228 220 216 221 224 219 214 214 213 212 210 206 204 203 202 201 199 200 205 211 215 220 225 226 227 228 232 232 223 216 212 205 206 211 210 208 211 213 214 214 211 205 199 196 201 214 224 223 216 210 213 223 219 218 229 233 222 222 231 241 261 275 282 286 289
7 15 17 15 11 6 360 354 350 348 344 335 313 277 256 250 248 249 246 237 227 218 218 222 220 213 211 207 203 201 198 196 196 195 197 200 199 200 206 212 218 223 224 225 225 223 228 233 221 207 208 210 214 218 217 212 212 214 216 213 202 197 200 203 206 215 228 235 234 224 219 223 227 232 237 221 198 212 268 279 269 275 283 288 295
8 13 18 21 18 14 9 2 356 352 348 345 340 323 296 267 253 248 240 235 230 215 203 206 209 209 208 202 195 189 184 182 186 191 195 194 191 198 210 218 221 222 219 219 218 216 218 221 215 209 214 218 218 218 214 210 209 212 214 208 198 197 205 209 207 210 220 228 231 228 229 237 240 231 223 213 211 222 246 269 272 280 289 298 313
16 14 17 23 27 24 19 12 9 9 6 360 353 342 328 308 275 248 227 222 220 199 180 183 194 197 196 191 185 179 175 175 180 187 187 183 189 203 213 219 220 219 217 215 212 210 211 210 205 204 208 213 214 212 208 206 207 212 211 203 197 199 206 208 209 215 221 224 223 221 223 220 214 222 224 219 212 197 196 221 264 304 306 307 324